SHT16C EGLL-EGPE

Flight info

Callsign SHT16C
Flight time 1h 11m
Altitude 36000
Route ULTIB T420 TNT UN57 POL UN601 RIBEL DCT SHAPP DCT INREV DCT TLA DCT FOYLE/N0368F250 N560 NESDI DCT GUSSI
Aircraft A320/M-SDE3FGHIRWY/LB1

Departure

Time 2026-05-07 09:14
Airport London Heathrow Airport (EGLL)

Arrival

Time 2026-05-07 10:25
Airport Inverness Airport (EGPE)
Time Latitude Longitude Altitude Speed Heading
2026-05-07 08:45 51.47400 -0.48759 88 ft 0 kts 179°
2026-05-07 09:04 51.47401 -0.48759 85 ft 2 kts 179°
2026-05-07 09:04 51.47427 -0.48760 86 ft 4 kts 175°
2026-05-07 09:05 51.47453 -0.48766 87 ft 4 kts 166°
2026-05-07 09:05 51.47477 -0.48781 88 ft 4 kts 134°
2026-05-07 09:05 51.47485 -0.48802 87 ft 0 kts 90°
2026-05-07 09:07 51.47485 -0.48799 87 ft 1 kts 90°
2026-05-07 09:07 51.47485 -0.48720 85 ft 14 kts 89°
2026-05-07 09:08 51.47488 -0.48545 87 ft 17 kts 89°
2026-05-07 09:08 51.47486 -0.48403 85 ft 11 kts 107°
2026-05-07 09:08 51.47407 -0.48361 85 ft 15 kts 179°
2026-05-07 09:08 51.47291 -0.48358 85 ft 18 kts 180°
2026-05-07 09:09 51.47158 -0.48357 85 ft 20 kts 179°
2026-05-07 09:09 51.47015 -0.48355 86 ft 18 kts 180°
2026-05-07 09:09 51.46897 -0.48354 85 ft 13 kts 179°
2026-05-07 09:09 51.46812 -0.48353 85 ft 8 kts 180°
2026-05-07 09:10 51.46770 -0.48354 85 ft 10 kts 186°
2026-05-07 09:10 51.46733 -0.48449 85 ft 11 kts 233°
2026-05-07 09:10 51.46655 -0.48468 88 ft 11 kts 180°
2026-05-07 09:10 51.46608 -0.48469 89 ft 3 kts 180°
2026-05-07 09:11 51.46601 -0.48469 89 ft 0 kts 180°
2026-05-07 09:11 51.46589 -0.48469 89 ft 4 kts 180°
2026-05-07 09:11 51.46547 -0.48469 89 ft 9 kts 180°
2026-05-07 09:11 51.46479 -0.48442 88 ft 8 kts 112°
2026-05-07 09:12 51.46477 -0.48408 87 ft 0 kts 89°
2026-05-07 09:13 51.46479 -0.48281 88 ft 40 kts 89°
2026-05-07 09:13 51.46480 -0.47432 81 ft 108 kts 90°
2026-05-07 09:13 51.46489 -0.45944 83 ft 157 kts 88°
2026-05-07 09:14 51.46526 -0.44108 517 ft 165 kts 90°
2026-05-07 09:14 51.46560 -0.42262 1241 ft 166 kts 85°
2026-05-07 09:14 51.46982 -0.40460 1700 ft 185 kts 55°
2026-05-07 09:14 51.47853 -0.38760 1978 ft 209 kts 51°
2026-05-07 09:15 51.48847 -0.36857 2307 ft 235 kts 51°
2026-05-07 09:15 51.49935 -0.34778 2792 ft 256 kts 51°
2026-05-07 09:15 51.51098 -0.32554 3619 ft 264 kts 50°
2026-05-07 09:15 51.52208 -0.30183 4515 ft 269 kts 62°
2026-05-07 09:16 51.52886 -0.27356 5421 ft 273 kts 70°
2026-05-07 09:16 51.53826 -0.24701 6300 ft 277 kts 46°
2026-05-07 09:16 51.55395 -0.22912 7129 ft 279 kts 20°
2026-05-07 09:16 51.57301 -0.22431 7948 ft 280 kts 352°
2026-05-07 09:17 51.59207 -0.23103 8779 ft 282 kts 346°
2026-05-07 09:17 51.61134 -0.23799 9628 ft 285 kts 343°
2026-05-07 09:17 51.62976 -0.25050 10323 ft 294 kts 331°
2026-05-07 09:17 51.64831 -0.26717 10536 ft 317 kts 330°
2026-05-07 09:18 51.66798 -0.28573 10775 ft 337 kts 329°
2026-05-07 09:18 51.68833 -0.30539 11350 ft 344 kts 328°
2026-05-07 09:18 51.70896 -0.32547 12016 ft 348 kts 328°
2026-05-07 09:18 51.72981 -0.34576 12705 ft 352 kts 328°
2026-05-07 09:19 51.75094 -0.36634 13392 ft 356 kts 328°
2026-05-07 09:19 51.77230 -0.38715 14075 ft 360 kts 328°
2026-05-07 09:19 51.79384 -0.40809 14692 ft 363 kts 328°
2026-05-07 09:19 51.81564 -0.42924 15306 ft 366 kts 328°
2026-05-07 09:20 51.83758 -0.45043 15925 ft 369 kts 328°
2026-05-07 09:20 51.85941 -0.47151 16509 ft 372 kts 328°
2026-05-07 09:20 51.88166 -0.49309 17111 ft 375 kts 327°
2026-05-07 09:20 51.90415 -0.51503 17711 ft 378 kts 327°
2026-05-07 09:21 51.92677 -0.53716 18337 ft 382 kts 328°
2026-05-07 09:21 51.94960 -0.55949 18878 ft 385 kts 328°
2026-05-07 09:21 51.97263 -0.58201 19430 ft 389 kts 328°
2026-05-07 09:21 51.99594 -0.60475 19983 ft 392 kts 328°
2026-05-07 09:22 52.01943 -0.62767 20524 ft 396 kts 328°
2026-05-07 09:22 52.04316 -0.65083 21061 ft 400 kts 328°
2026-05-07 09:22 52.06708 -0.67423 21566 ft 404 kts 328°
2026-05-07 09:22 52.09123 -0.69795 22057 ft 407 kts 328°
2026-05-07 09:23 52.11560 -0.72195 22554 ft 410 kts 328°
2026-05-07 09:23 52.13981 -0.74584 23017 ft 414 kts 328°
2026-05-07 09:23 52.16456 -0.77027 23461 ft 418 kts 329°
2026-05-07 09:23 52.18955 -0.79497 23895 ft 421 kts 329°
2026-05-07 09:24 52.21464 -0.81986 24299 ft 423 kts 329°
2026-05-07 09:24 52.23983 -0.84490 24702 ft 425 kts 329°
2026-05-07 09:24 52.26518 -0.87008 25089 ft 427 kts 329°
2026-05-07 09:24 52.29066 -0.89536 25473 ft 429 kts 329°
2026-05-07 09:25 52.31628 -0.92082 25854 ft 431 kts 329°
2026-05-07 09:25 52.34200 -0.94644 26239 ft 433 kts 329°
2026-05-07 09:25 52.36777 -0.97213 26621 ft 435 kts 329°
2026-05-07 09:25 52.39371 -0.99801 26998 ft 437 kts 329°
2026-05-07 09:26 52.41983 -1.02414 27328 ft 440 kts 329°
2026-05-07 09:26 52.44611 -1.05047 27662 ft 443 kts 329°
2026-05-07 09:26 52.47208 -1.07653 28012 ft 445 kts 330°
2026-05-07 09:26 52.49853 -1.10311 28362 ft 447 kts 330°
2026-05-07 09:27 52.52512 -1.12984 28702 ft 449 kts 330°
2026-05-07 09:27 52.55184 -1.15668 29043 ft 451 kts 330°
2026-05-07 09:27 52.60553 -1.21080 29793 ft 453 kts 330°
2026-05-07 09:28 52.63232 -1.23790 30257 ft 451 kts 330°
2026-05-07 09:28 52.65903 -1.26498 30665 ft 450 kts 330°
2026-05-07 09:28 52.68570 -1.29206 31069 ft 450 kts 330°
2026-05-07 09:28 52.71235 -1.31914 31472 ft 449 kts 330°
2026-05-07 09:29 52.73893 -1.34615 31924 ft 449 kts 330°
2026-05-07 09:29 52.76550 -1.37323 32328 ft 448 kts 330°
2026-05-07 09:29 52.79197 -1.40028 32787 ft 446 kts 330°
2026-05-07 09:29 52.81833 -1.42725 33221 ft 445 kts 330°
2026-05-07 09:30 52.84467 -1.45425 33643 ft 445 kts 330°
2026-05-07 09:30 52.87097 -1.48127 34007 ft 445 kts 330°
2026-05-07 09:30 52.89729 -1.50833 34090 ft 448 kts 330°
2026-05-07 09:31 52.95060 -1.56313 34340 ft 452 kts 330°
2026-05-07 09:31 52.97734 -1.59062 34664 ft 452 kts 330°
2026-05-07 09:31 53.00406 -1.61816 34981 ft 452 kts 329°
2026-05-07 09:31 53.03076 -1.64580 35278 ft 452 kts 329°
2026-05-07 09:32 53.05809 -1.67140 35567 ft 451 kts 336°
2026-05-07 09:32 53.08719 -1.69064 35832 ft 451 kts 340°
2026-05-07 09:32 53.11628 -1.70858 36042 ft 453 kts 341°
2026-05-07 09:33 53.17543 -1.74508 36082 ft 452 kts 340°
2026-05-07 09:33 53.23443 -1.78177 36084 ft 453 kts 340°
2026-05-07 09:34 53.29343 -1.81859 36081 ft 452 kts 340°
2026-05-07 09:34 53.35245 -1.85549 36080 ft 453 kts 340°
2026-05-07 09:35 53.41138 -1.89252 36081 ft 452 kts 339°
2026-05-07 09:35 53.46998 -1.92939 36080 ft 454 kts 339°
2026-05-07 09:36 53.53026 -1.96750 36078 ft 466 kts 339°
2026-05-07 09:36 53.59123 -2.00617 36077 ft 469 kts 339°
2026-05-07 09:37 53.65237 -2.04496 36075 ft 471 kts 339°
2026-05-07 09:37 53.71321 -2.08368 36072 ft 470 kts 339°
2026-05-07 09:38 53.77459 -2.12325 36070 ft 473 kts 338°
2026-05-07 09:38 53.83557 -2.16490 36081 ft 473 kts 337°
2026-05-07 09:39 53.89651 -2.20738 36082 ft 473 kts 337°
2026-05-07 09:39 53.95755 -2.24951 36092 ft 473 kts 337°
2026-05-07 09:40 54.01791 -2.29409 36087 ft 472 kts 331°
2026-05-07 09:40 54.07581 -2.34720 36076 ft 472 kts 330°
2026-05-07 09:41 54.13349 -2.40107 36070 ft 473 kts 330°
2026-05-07 09:41 54.19077 -2.45470 36072 ft 472 kts 330°
2026-05-07 09:42 54.24849 -2.50865 36074 ft 472 kts 330°
2026-05-07 09:42 54.30611 -2.56266 36066 ft 472 kts 330°
2026-05-07 09:43 54.36369 -2.61675 36063 ft 472 kts 330°
2026-05-07 09:43 54.42115 -2.67099 36064 ft 471 kts 330°
2026-05-07 09:44 54.47863 -2.72535 36063 ft 472 kts 329°
2026-05-07 09:44 54.53609 -2.77993 36053 ft 471 kts 329°
2026-05-07 09:45 54.59344 -2.83469 36050 ft 471 kts 329°
2026-05-07 09:45 54.65085 -2.88965 36041 ft 472 kts 330°
2026-05-07 09:46 54.70821 -2.94458 36040 ft 471 kts 328°
2026-05-07 09:46 54.76520 -2.99947 36043 ft 471 kts 329°
2026-05-07 09:47 54.82234 -3.05472 36039 ft 470 kts 329°
2026-05-07 09:47 54.87942 -3.10999 36038 ft 470 kts 329°
2026-05-07 09:48 54.93648 -3.16532 36035 ft 469 kts 329°
2026-05-07 09:48 54.99343 -3.22089 36042 ft 469 kts 329°
2026-05-07 09:49 55.05035 -3.27659 36043 ft 469 kts 329°
2026-05-07 09:49 55.10715 -3.33238 36046 ft 469 kts 328°
2026-05-07 09:50 55.16401 -3.38834 36038 ft 469 kts 328°
2026-05-07 09:50 55.22082 -3.44437 36046 ft 469 kts 328°
2026-05-07 09:51 55.27761 -3.50076 36039 ft 469 kts 328°
2026-05-07 09:51 55.33358 -3.55646 35996 ft 449 kts 328°
2026-05-07 09:52 55.38716 -3.60998 36002 ft 440 kts 328°
2026-05-07 09:52 55.44020 -3.66309 35994 ft 438 kts 328°
2026-05-07 09:53 55.49296 -3.71592 35995 ft 437 kts 327°
2026-05-07 09:53 55.54580 -3.76917 35892 ft 438 kts 327°
2026-05-07 09:53 55.57219 -3.79576 35627 ft 435 kts 327°
2026-05-07 09:54 55.59843 -3.82222 35372 ft 433 kts 327°
2026-05-07 09:54 55.62455 -3.84861 35118 ft 429 kts 327°
2026-05-07 09:54 55.65035 -3.87476 34691 ft 426 kts 327°
2026-05-07 09:54 55.67606 -3.90089 34226 ft 428 kts 326°
2026-05-07 09:55 55.70193 -3.92732 33735 ft 441 kts 326°
2026-05-07 09:55 55.72868 -3.95467 33230 ft 445 kts 326°
2026-05-07 09:55 55.75565 -3.98221 32723 ft 451 kts 326°
2026-05-07 09:55 55.78290 -4.01005 32219 ft 452 kts 326°
2026-05-07 09:56 55.81007 -4.03776 31724 ft 449 kts 326°
2026-05-07 09:56 55.83704 -4.06533 31236 ft 445 kts 326°
2026-05-07 09:56 55.86375 -4.09274 30754 ft 441 kts 326°
2026-05-07 09:56 55.89025 -4.12007 30301 ft 437 kts 326°
2026-05-07 09:57 55.91651 -4.14716 29797 ft 434 kts 326°
2026-05-07 09:57 55.93374 -4.16495 29493 ft 431 kts 326°
2026-05-07 09:57 55.95966 -4.19179 29055 ft 429 kts 326°
2026-05-07 09:57 55.98537 -4.21841 28625 ft 426 kts 326°
2026-05-07 09:58 56.01099 -4.24499 28198 ft 423 kts 326°
2026-05-07 09:58 56.04454 -4.27981 27631 ft 419 kts 326°
2026-05-07 09:58 56.06967 -4.30599 27201 ft 416 kts 326°
2026-05-07 09:58 56.08655 -4.32359 26913 ft 414 kts 326°
2026-05-07 09:59 56.11152 -4.34919 26478 ft 413 kts 329°
2026-05-07 09:59 56.13846 -4.36741 26061 ft 416 kts 343°
2026-05-07 09:59 56.16728 -4.37424 25799 ft 422 kts 355°
2026-05-07 09:59 56.19682 -4.37036 25180 ft 426 kts
2026-05-07 10:00 56.22593 -4.36334 24938 ft 420 kts
2026-05-07 10:00 56.25494 -4.35628 24709 ft 421 kts
2026-05-07 10:00 56.28359 -4.34934 24477 ft 420 kts
2026-05-07 10:00 56.31254 -4.34245 24233 ft 419 kts
2026-05-07 10:01 56.34142 -4.33561 23997 ft 418 kts
2026-05-07 10:01 56.37016 -4.32876 23762 ft 416 kts
2026-05-07 10:01 56.39889 -4.32195 23524 ft 415 kts
2026-05-07 10:01 56.42742 -4.31518 23243 ft 413 kts
2026-05-07 10:02 56.45587 -4.30845 22963 ft 411 kts
2026-05-07 10:02 56.48417 -4.30175 22684 ft 409 kts
2026-05-07 10:02 56.51237 -4.29502 22432 ft 409 kts
2026-05-07 10:02 56.54054 -4.28829 22160 ft 408 kts
2026-05-07 10:03 56.56862 -4.28154 21888 ft 406 kts
2026-05-07 10:03 56.59663 -4.27477 21569 ft 405 kts
2026-05-07 10:03 56.62414 -4.26807 21104 ft 403 kts
2026-05-07 10:03 56.65181 -4.26138 20638 ft 400 kts
2026-05-07 10:04 56.67933 -4.25476 20177 ft 397 kts
2026-05-07 10:04 56.70663 -4.24820 19732 ft 394 kts
2026-05-07 10:04 56.73371 -4.24168 19285 ft 390 kts
2026-05-07 10:04 56.76052 -4.23519 18872 ft 387 kts
2026-05-07 10:05 56.78713 -4.22877 18479 ft 385 kts
2026-05-07 10:05 56.81364 -4.22234 18053 ft 383 kts
2026-05-07 10:05 56.84000 -4.21594 17553 ft 381 kts
2026-05-07 10:05 56.86620 -4.20956 17020 ft 379 kts
2026-05-07 10:06 56.89229 -4.20319 16489 ft 377 kts
2026-05-07 10:06 56.91827 -4.19685 15967 ft 375 kts
2026-05-07 10:06 56.94410 -4.19051 15455 ft 373 kts
2026-05-07 10:06 56.96977 -4.18418 14949 ft 372 kts
2026-05-07 10:07 56.99537 -4.17789 14452 ft 370 kts
2026-05-07 10:07 57.02084 -4.17165 13961 ft 368 kts
2026-05-07 10:07 57.04619 -4.16543 13465 ft 367 kts
2026-05-07 10:07 57.07140 -4.15925 12929 ft 365 kts
2026-05-07 10:08 57.09648 -4.15310 12377 ft 363 kts
2026-05-07 10:08 57.12100 -4.14469 11872 ft 365 kts 17°
2026-05-07 10:08 57.14378 -4.12443 11422 ft 360 kts 28°
2026-05-07 10:08 57.16490 -4.10214 11135 ft 340 kts 29°
2026-05-07 10:09 57.18486 -4.08078 10860 ft 326 kts 29°
2026-05-07 10:09 57.20436 -4.05982 10544 ft 323 kts 29°
2026-05-07 10:09 57.22374 -4.03896 10207 ft 321 kts 29°
2026-05-07 10:09 57.24293 -4.01829 9907 ft 319 kts 29°
2026-05-07 10:10 57.26202 -3.99766 9563 ft 317 kts 29°
2026-05-07 10:10 57.28100 -3.97706 9200 ft 315 kts 29°
2026-05-07 10:10 57.29988 -3.95651 8830 ft 315 kts 29°
2026-05-07 10:10 57.31871 -3.93592 8453 ft 314 kts 29°
2026-05-07 10:11 57.33739 -3.91555 8094 ft 307 kts 29°
2026-05-07 10:11 57.35531 -3.89598 7902 ft 289 kts 29°
2026-05-07 10:11 57.37196 -3.87768 7916 ft 268 kts 29°
2026-05-07 10:11 57.38779 -3.86021 7916 ft 263 kts 29°
2026-05-07 10:12 57.40350 -3.84286 7879 ft 264 kts 29°
2026-05-07 10:12 57.41915 -3.82558 7573 ft 266 kts 29°
2026-05-07 10:12 57.43512 -3.80788 7218 ft 269 kts 29°
2026-05-07 10:12 57.45133 -3.78990 6861 ft 267 kts 29°
2026-05-07 10:13 57.46719 -3.77234 6523 ft 271 kts 28°
2026-05-07 10:13 57.48345 -3.75395 6162 ft 276 kts 29°
2026-05-07 10:13 57.49984 -3.73536 5792 ft 275 kts 30°
2026-05-07 10:13 57.51626 -3.71702 5420 ft 274 kts 29°
2026-05-07 10:14 57.53248 -3.69912 5079 ft 268 kts 29°
2026-05-07 10:14 57.54835 -3.68158 4737 ft 261 kts 29°
2026-05-07 10:14 57.56378 -3.66450 4394 ft 256 kts 30°
2026-05-07 10:14 57.57900 -3.64799 4052 ft 251 kts 29°
2026-05-07 10:15 57.59392 -3.63218 3745 ft 242 kts 30°
2026-05-07 10:15 57.60835 -3.61727 3479 ft 232 kts 29°
2026-05-07 10:15 57.62214 -3.60294 3285 ft 223 kts 29°
2026-05-07 10:15 57.63556 -3.58876 3278 ft 221 kts 30°
2026-05-07 10:16 57.64894 -3.57461 3310 ft 220 kts 29°
2026-05-07 10:16 57.66229 -3.56053 3317 ft 220 kts 29°
2026-05-07 10:16 57.67557 -3.54640 3301 ft 220 kts 29°
2026-05-07 10:16 57.68886 -3.53228 3302 ft 220 kts 30°
2026-05-07 10:17 57.70218 -3.51820 3303 ft 220 kts 30°
2026-05-07 10:17 57.71640 -3.50831 3307 ft 217 kts
2026-05-07 10:17 57.73062 -3.51425 3308 ft 207 kts 322°
2026-05-07 10:17 57.73961 -3.53362 3306 ft 193 kts 284°
2026-05-07 10:18 57.74165 -3.55780 3307 ft 187 kts 266°
2026-05-07 10:18 57.74186 -3.58207 3305 ft 186 kts 264°
2026-05-07 10:18 57.74050 -3.60587 3304 ft 181 kts 248°
2026-05-07 10:18 57.73455 -3.62612 3304 ft 177 kts 227°
2026-05-07 10:19 57.72666 -3.64350 3315 ft 177 kts 227°
2026-05-07 10:19 57.71871 -3.66110 3307 ft 177 kts 227°
2026-05-07 10:19 57.71073 -3.67872 3302 ft 178 kts 227°
2026-05-07 10:19 57.70274 -3.69638 3300 ft 178 kts 227°
2026-05-07 10:20 57.69472 -3.71408 3300 ft 178 kts 227°
2026-05-07 10:20 57.68675 -3.73165 3298 ft 177 kts 227°
2026-05-07 10:20 57.67878 -3.74922 3298 ft 178 kts 226°
2026-05-07 10:20 57.67081 -3.76676 3285 ft 177 kts 226°
2026-05-07 10:21 57.66292 -3.78415 3281 ft 172 kts 226°
2026-05-07 10:21 57.65523 -3.80105 3262 ft 170 kts 226°
2026-05-07 10:21 57.64763 -3.81774 3105 ft 167 kts 226°
2026-05-07 10:21 57.64010 -3.83427 2899 ft 166 kts 225°
2026-05-07 10:22 57.63258 -3.85075 2678 ft 167 kts 226°
2026-05-07 10:22 57.62505 -3.86726 2450 ft 165 kts 226°
2026-05-07 10:22 57.61781 -3.88316 2225 ft 155 kts 225°
2026-05-07 10:22 57.61104 -3.89799 2023 ft 150 kts 225°
2026-05-07 10:23 57.60432 -3.91268 1820 ft 148 kts 225°
2026-05-07 10:23 57.59762 -3.92731 1616 ft 149 kts 225°
2026-05-07 10:23 57.59090 -3.94199 1383 ft 147 kts 225°
2026-05-07 10:23 57.58456 -3.95589 1202 ft 134 kts 222°
2026-05-07 10:24 57.57854 -3.96901 1005 ft 135 kts 225°
2026-05-07 10:24 57.57250 -3.98218 811 ft 138 kts 226°
2026-05-07 10:24 57.56643 -3.99543 641 ft 134 kts 226°
2026-05-07 10:24 57.56048 -4.00839 459 ft 130 kts 221°
2026-05-07 10:25 57.55470 -4.02099 279 ft 128 kts 219°
2026-05-07 10:25 57.54879 -4.03382 107 ft 131 kts 223°
2026-05-07 10:25 57.54299 -4.04630 37 ft 114 kts 226°
2026-05-07 10:25 57.53958 -4.05375 38 ft 46 kts 229°
2026-05-07 10:26 57.53789 -4.05750 39 ft 20 kts 234°
2026-05-07 10:26 57.53718 -4.05929 36 ft 14 kts 245°
2026-05-07 10:26 57.53753 -4.06092 40 ft 14 kts 301°
2026-05-07 10:26 57.53804 -4.06179 47 ft 8 kts 347°
2026-05-07 10:27 57.53868 -4.06175 47 ft 11 kts
2026-05-07 10:27 57.53917 -4.06178 47 ft 4 kts 326°
2026-05-07 10:27 57.53923 -4.06232 47 ft 5 kts 272°
2026-05-07 10:27 57.53924 -4.06255 47 ft 0 kts 275°